^^
Datos históricos de la estación: Murcia-Puente Tocinos
Diario Informe para Marzo 12, 2019 Unidades:  Métrico    Inglés   Ambas
Diario Semanal Mensual Anual Configurable
  Máximo: Mínimo: Media:
Temperatura: 24.0 °C 9.1 °C 15.8 °C
Punto de rocio: 10.8 °C 5.7 °C 7.7 °C
Humedad: 82% 35% 61%
Velocidad viento: 13.7km/h 0.0km/h 6km/h
Racha viento: 25.9km/h - -
Viento- - South
Presión: 1029.6 hPa 1020.3 hPa -
Precipitación: 0.0 mm    
Historical Graphs
 
 
Tabla de datos para Marzo 12, 2019
Hora Temperatura Punto de rocio Presión Viento Velocidad viento Racha viento Humedad Intensidad lluvia(por hora) Nubes
00:00 12.6 °C 8.3 °C 1029.6 hPa Calm   6.4 km/h 75% 0.0 mm CLR
00:05 12.5 °C 8.2 °C 1029.5 hPa Calm   4.8 km/h 75% 0.0 mm CLR
00:10 12.4 °C 8.3 °C 1029.5 hPa ESE 2.9 km/h 3.7 km/h 76% 0.0 mm CLR
00:15 12.4 °C 8.3 °C 1029.5 hPa ESE 2.9 km/h   76% 0.0 mm CLR
00:20 12.4 °C 8.3 °C 1029.5 hPa Calm     76% 0.0 mm CLR
00:25 12.4 °C 8.3 °C 1029.5 hPa Calm     76% 0.0 mm CLR
00:30 12.4 °C 8.3 °C 1029.5 hPa Calm     76% 0.0 mm CLR
00:35 12.3 °C 8.2 °C 1029.5 hPa Calm     76% 0.0 mm CLR
00:40 12.3 °C 8.2 °C 1029.5 hPa Calm     76% 0.0 mm CLR
00:45 12.3 °C 8.2 °C 1029.5 hPa Calm     76% 0.0 mm CLR
00:50 12.3 °C 8.2 °C 1029.5 hPa SE 2.3 km/h 9.3 km/h 76% 0.0 mm CLR
00:55 12.2 °C 8.3 °C 1029.5 hPa SE 1.6 km/h 8.0 km/h 77% 0.0 mm CLR
01:00 12.2 °C 8.1 °C 1029.5 hPa SE 3.2 km/h 8.0 km/h 76% 0.0 mm CLR
01:05 12.2 °C 8.1 °C 1029.3 hPa SE 3.2 km/h 9.7 km/h 76% 0.0 mm CLR
01:10 12.2 °C 7.9 °C 1029.3 hPa SSE 4.8 km/h 9.7 km/h 75% 0.0 mm CLR
01:15 12.0 °C 7.7 °C 1029.3 hPa SSE 4.8 km/h 11.3 km/h 75% 0.0 mm CLR
01:20 11.9 °C 7.6 °C 1029.4 hPa SSE 8.0 km/h 9.7 km/h 75% 0.0 mm CLR
01:25 11.9 °C 7.6 °C 1029.4 hPa SSE 6.9 km/h 7.4 km/h 75% 0.0 mm CLR
01:30 11.8 °C 7.5 °C 1029.4 hPa SSW 5.8 km/h 7.4 km/h 75% 0.0 mm CLR
01:35 11.9 °C 7.6 °C 1029.3 hPa SSW 5.8 km/h 7.4 km/h 75% 0.0 mm CLR
01:40 11.9 °C 7.6 °C 1029.3 hPa South 5.8 km/h 5.6 km/h 75% 0.0 mm CLR
01:45 11.9 °C 7.6 °C 1029.3 hPa South 5.8 km/h 7.6 km/h 75% 0.0 mm CLR
01:50 12.0 °C 7.7 °C 1029.3 hPa South 4.7 km/h 7.4 km/h 75% 0.0 mm CLR
01:55 12.0 °C 7.7 °C 1029.3 hPa South 4.7 km/h 5.8 km/h 75% 0.0 mm CLR
02:00 12.1 °C 7.8 °C 1029.3 hPa South 3.2 km/h 6.4 km/h 75% 0.0 mm CLR
02:05 12.1 °C 7.8 °C 1029.2 hPa South 3.2 km/h 4.8 km/h 75% 0.0 mm CLR
02:10 11.9 °C 7.4 °C 1029.2 hPa South 2.3 km/h 5.6 km/h 74% 0.0 mm CLR
02:15 11.7 °C 7.4 °C 1029.2 hPa South 2.3 km/h 3.7 km/h 75% 0.0 mm CLR
02:20 11.4 °C 7.1 °C 1029.0 hPa South 2.9 km/h 3.7 km/h 75% 0.0 mm CLR
02:25 11.2 °C 7.1 °C 1029.0 hPa South 2.9 km/h 3.7 km/h 76% 0.0 mm CLR
02:30 11.1 °C 7.2 °C 1029.0 hPa South 2.3 km/h   77% 0.0 mm CLR
02:35 11.0 °C 7.3 °C 1029.1 hPa South 2.3 km/h   78% 0.0 mm CLR
02:40 10.9 °C 7.2 °C 1029.1 hPa Calm   3.9 km/h 78% 0.0 mm CLR
02:45 10.8 °C 7.3 °C 1029.1 hPa Calm   3.2 km/h 79% 0.0 mm CLR
02:50 10.8 °C 7.3 °C 1029.0 hPa South 2.3 km/h   79% 0.0 mm CLR
02:55 10.7 °C 7.2 °C 1029.0 hPa South 1.6 km/h 3.2 km/h 79% 0.0 mm CLR
03:00 10.8 °C 7.3 °C 1029.0 hPa Calm   3.2 km/h 79% 0.0 mm CLR
03:05 10.8 °C 7.3 °C 1029.0 hPa Calm     79% 0.0 mm CLR
03:10 10.8 °C 7.3 °C 1029.0 hPa Calm     79% 0.0 mm CLR
03:15 10.9 °C 7.4 °C 1029.0 hPa Calm   8.0 km/h 79% 0.0 mm CLR
03:20 10.9 °C 7.2 °C 1028.9 hPa SE 3.2 km/h 7.4 km/h 78% 0.0 mm CLR
03:25 10.9 °C 7.2 °C 1028.9 hPa SE 3.2 km/h 6.4 km/h 78% 0.0 mm CLR
03:30 10.8 °C 7.1 °C 1028.9 hPa SE 2.9 km/h 3.7 km/h 78% 0.0 mm CLR
03:35 10.8 °C 7.1 °C 1028.8 hPa SE 3.2 km/h 3.2 km/h 78% 0.0 mm CLR
03:40 10.7 °C 7.0 °C 1028.8 hPa SE 1.6 km/h 3.2 km/h 78% 0.0 mm CLR
03:45 10.5 °C 6.8 °C 1028.8 hPa SE 2.3 km/h 3.7 km/h 78% 0.0 mm CLR
03:50 10.4 °C 6.7 °C 1028.8 hPa SE 2.9 km/h 5.6 km/h 78% 0.0 mm CLR
03:55 10.3 °C 6.8 °C 1028.8 hPa SE 2.9 km/h 7.4 km/h 79% 0.0 mm CLR
04:00 10.3 °C 6.8 °C 1028.8 hPa SE 3.2 km/h 6.4 km/h 79% 0.0 mm CLR
04:05 10.2 °C 6.7 °C 1028.7 hPa SE 3.2 km/h 6.4 km/h 79% 0.0 mm CLR
04:10 10.2 °C 6.8 °C 1028.7 hPa SE 3.2 km/h 4.8 km/h 80% 0.0 mm CLR
04:15 10.1 °C 6.6 °C 1028.7 hPa SE 3.9 km/h 3.7 km/h 79% 0.0 mm CLR
04:20 10.0 °C 6.5 °C 1028.6 hPa Calm   3.7 km/h 79% 0.0 mm CLR
04:25 9.9 °C 6.4 °C 1028.6 hPa Calm   3.2 km/h 79% 0.0 mm CLR
04:30 9.8 °C 6.5 °C 1028.6 hPa SE 2.3 km/h 3.7 km/h 80% 0.0 mm CLR
04:35 9.7 °C 6.4 °C 1028.6 hPa SE 2.3 km/h   80% 0.0 mm CLR
04:40 9.6 °C 6.5 °C 1028.6 hPa Calm     81% 0.0 mm CLR
04:45 9.6 °C 6.5 °C 1028.6 hPa Calm     81% 0.0 mm CLR
04:50 9.5 °C 6.4 °C 1028.5 hPa Calm     81% 0.0 mm CLR
04:55 9.4 °C 6.3 °C 1028.5 hPa Calm   5.6 km/h 81% 0.0 mm CLR
05:00 9.4 °C 6.5 °C 1028.5 hPa SE 1.6 km/h 4.8 km/h 82% 0.0 mm CLR
05:05 9.4 °C 6.5 °C 1028.4 hPa SE 2.3 km/h 5.6 km/h 82% 0.0 mm CLR
05:10 9.4 °C 6.3 °C 1028.4 hPa SE 2.9 km/h 7.4 km/h 81% 0.0 mm CLR
05:15 9.3 °C 6.2 °C 1028.4 hPa SE 2.9 km/h 5.6 km/h 81% 0.0 mm CLR
05:20 9.2 °C 6.2 °C 1028.4 hPa SE 3.2 km/h 8.0 km/h 81% 0.0 mm CLR
05:25 9.2 °C 6.1 °C 1028.4 hPa SE 4.7 km/h 7.4 km/h 81% 0.0 mm CLR
05:30 9.2 °C 6.1 °C 1028.4 hPa SE 3.2 km/h 7.4 km/h 81% 0.0 mm CLR
05:35 9.3 °C 6.2 °C 1028.3 hPa SSW 3.2 km/h 7.4 km/h 81% 0.0 mm CLR
05:40 9.3 °C 6.2 °C 1028.3 hPa SSW 4.8 km/h 9.7 km/h 81% 0.0 mm CLR
05:45 9.4 °C 6.3 °C 1028.3 hPa SSW 5.0 km/h 5.6 km/h 81% 0.0 mm CLR
05:50 9.5 °C 6.2 °C 1028.4 hPa SSW 3.2 km/h 7.4 km/h 80% 0.0 mm CLR
05:55 9.6 °C 6.3 °C 1028.4 hPa SSW 3.2 km/h 8.0 km/h 80% 0.0 mm CLR
06:00 9.6 °C 6.3 °C 1028.4 hPa SSW 4.8 km/h 9.7 km/h 80% 0.0 mm CLR
06:05 9.6 °C 6.3 °C 1028.4 hPa SSW 5.0 km/h 13.0 km/h 80% 0.0 mm CLR
06:10 9.5 °C 6.2 °C 1028.4 hPa SSW 7.6 km/h 13.0 km/h 80% 0.0 mm CLR
06:15 9.4 °C 6.1 °C 1028.4 hPa SSW 7.6 km/h 11.9 km/h 80% 0.0 mm CLR
06:20 9.4 °C 6.1 °C 1028.4 hPa SSE 8.4 km/h 9.3 km/h 80% 0.0 mm CLR
06:25 9.4 °C 6.1 °C 1028.4 hPa SW 8.4 km/h 9.3 km/h 80% 0.0 mm CLR
06:30 9.5 °C 6.1 °C 1028.4 hPa SSW 7.6 km/h 7.4 km/h 79% 0.0 mm CLR
06:35 9.5 °C 6.1 °C 1028.2 hPa SSW 7.6 km/h 7.4 km/h 79% 0.0 mm CLR
06:40 9.4 °C 5.9 °C 1028.2 hPa South 6.4 km/h 9.3 km/h 79% 0.0 mm CLR
06:45 9.4 °C 5.9 °C 1028.2 hPa South 6.4 km/h 9.3 km/h 79% 0.0 mm CLR
06:50 9.3 °C 5.8 °C 1028.2 hPa South 8.0 km/h 9.7 km/h 79% 0.0 mm CLR
06:55 9.3 °C 5.8 °C 1028.2 hPa SSW 6.9 km/h 7.4 km/h 79% 0.0 mm CLR
07:00 9.2 °C 5.7 °C 1028.2 hPa South 4.8 km/h 9.7 km/h 79% 0.0 mm CLR
07:05 9.3 °C 5.8 °C 1027.9 hPa SE 5.8 km/h 8.4 km/h 79% 0.0 mm CLR
07:10 9.3 °C 5.8 °C 1027.9 hPa South 6.4 km/h 11.1 km/h 79% 0.0 mm CLR
07:15 9.2 °C 5.7 °C 1027.9 hPa SSE 8.0 km/h 11.3 km/h 79% 0.0 mm CLR
07:20 9.2 °C 5.7 °C 1027.9 hPa South 8.0 km/h 12.9 km/h 79% 0.0 mm CLR
07:25 9.1 °C 5.7 °C 1027.9 hPa SSW 7.6 km/h 13.0 km/h 79% 0.0 mm CLR
07:30 9.2 °C 5.7 °C 1027.9 hPa SSW 8.4 km/h 9.3 km/h 79% 0.0 mm CLR
07:35 9.2 °C 5.7 °C 1027.7 hPa SSW 8.0 km/h 11.3 km/h 79% 0.0 mm CLR
07:40 9.2 °C 5.7 °C 1027.7 hPa SSW 6.4 km/h 10.0 km/h 79% 0.0 mm CLR
07:45 9.3 °C 5.7 °C 1027.7 hPa South 6.4 km/h 9.3 km/h 78% 0.0 mm CLR
07:50 9.4 °C 5.8 °C 1027.7 hPa SW 6.4 km/h 11.1 km/h 78% 0.0 mm CLR
07:55 9.4 °C 5.8 °C 1027.7 hPa SSW 6.4 km/h 9.3 km/h 78% 0.0 mm CLR
08:00 9.6 °C 5.9 °C 1027.7 hPa SSW 8.0 km/h 9.7 km/h 78% 0.0 mm CLR
08:05 9.7 °C 5.8 °C 1027.8 hPa SSW 7.6 km/h 5.8 km/h 77% 0.0 mm CLR
08:10 9.8 °C 5.9 °C 1027.8 hPa SSW 4.7 km/h 7.4 km/h 77% 0.0 mm CLR
08:15 9.9 °C 5.9 °C 1027.8 hPa SSW 4.7 km/h 7.4 km/h 76% 0.0 mm CLR
08:20 10.1 °C 5.9 °C 1027.9 hPa WSW 5.8 km/h 11.1 km/h 75% 0.0 mm CLR
08:25 10.2 °C 5.9 °C 1027.9 hPa WSW 5.8 km/h 9.3 km/h 75% 0.0 mm CLR
08:30 10.2 °C 5.8 °C 1027.9 hPa SW 6.9 km/h 9.3 km/h 74% 0.0 mm CLR
08:35 10.3 °C 5.9 °C 1027.9 hPa SW 8.0 km/h 9.7 km/h 74% 0.0 mm CLR
08:40 10.5 °C 6.1 °C 1027.9 hPa SW 5.8 km/h 10.0 km/h 74% 0.0 mm CLR
08:45 10.6 °C 5.9 °C 1027.9 hPa SW 5.8 km/h 9.3 km/h 73% 0.0 mm CLR
08:50 10.7 °C 6.3 °C 1027.9 hPa SSE 7.6 km/h 7.6 km/h 74% 0.0 mm CLR
08:55 10.9 °C 6.2 °C 1027.9 hPa SW 8.0 km/h 9.7 km/h 73% 0.0 mm CLR
09:00 11.1 °C 6.4 °C 1027.9 hPa SW 4.8 km/h 11.3 km/h 73% 0.0 mm CLR
09:05 11.2 °C 6.3 °C 1027.9 hPa SSW 5.8 km/h 9.3 km/h 72% 0.0 mm CLR
09:10 11.3 °C 6.4 °C 1027.9 hPa SW 6.9 km/h 9.3 km/h 72% 0.0 mm CLR
09:15 11.4 °C 6.6 °C 1027.9 hPa South 6.9 km/h 9.3 km/h 72% 0.0 mm CLR
09:20 11.7 °C 6.6 °C 1027.9 hPa West 5.8 km/h 7.4 km/h 71% 0.0 mm CLR
09:25 11.9 °C 6.6 °C 1027.9 hPa SSE 5.8 km/h 7.4 km/h 70% 0.0 mm CLR
09:30 12.1 °C 6.8 °C 1027.9 hPa South 4.7 km/h 11.1 km/h 70% 0.0 mm CLR
09:35 12.1 °C 6.6 °C 1028.1 hPa SSE 4.7 km/h 7.6 km/h 69% 0.0 mm CLR
09:40 12.2 °C 6.7 °C 1028.1 hPa South 8.0 km/h 9.7 km/h 69% 0.0 mm CLR
09:45 12.4 °C 6.7 °C 1028.1 hPa SSE 6.4 km/h 9.3 km/h 68% 0.0 mm CLR
09:50 12.5 °C 6.8 °C 1027.9 hPa SSW 6.4 km/h 9.3 km/h 68% 0.0 mm CLR
09:55 12.7 °C 6.9 °C 1027.9 hPa South 6.4 km/h 5.6 km/h 68% 0.0 mm CLR
10:00 12.8 °C 6.8 °C 1027.9 hPa South 4.8 km/h 9.7 km/h 67% 0.0 mm CLR
10:05 13.2 °C 7.2 °C 1027.7 hPa South 4.8 km/h 8.0 km/h 67% 0.0 mm CLR
10:10 13.5 °C 7.1 °C 1027.7 hPa NW 5.0 km/h 7.4 km/h 65% 0.0 mm CLR
10:15 13.7 °C 7.0 °C 1027.7 hPa WNW 5.0 km/h 5.8 km/h 64% 0.0 mm CLR
10:20 13.8 °C 6.9 °C 1027.7 hPa SW 3.9 km/h 7.4 km/h 63% 0.0 mm CLR
10:25 14.1 °C 6.9 °C 1027.7 hPa West 3.9 km/h 7.4 km/h 62% 0.0 mm CLR
10:30 14.1 °C 6.9 °C 1027.7 hPa WSW 3.2 km/h 8.0 km/h 62% 0.0 mm CLR
10:35 14.6 °C 7.2 °C 1027.4 hPa SSE 3.9 km/h 7.4 km/h 61% 0.0 mm CLR
10:40 14.9 °C 7.2 °C 1027.4 hPa SW 3.2 km/h 9.3 km/h 60% 0.0 mm CLR
10:45 14.8 °C 7.1 °C 1027.4 hPa SSW 3.2 km/h 3.7 km/h 60% 0.0 mm CLR
10:50 15.1 °C 7.2 °C 1027.2 hPa WNW 4.7 km/h 7.4 km/h 59% 0.0 mm CLR
10:55 15.2 °C 7.5 °C 1027.2 hPa WNW 4.7 km/h 2.3 km/h 60% 0.0 mm CLR
11:00 15.6 °C 7.6 °C 1027.2 hPa NW 3.2 km/h 8.0 km/h 59% 0.0 mm CLR
11:05 15.8 °C 7.3 °C 1027.2 hPa SW 3.2 km/h 7.4 km/h 57% 0.0 mm CLR
11:10 15.7 °C 6.7 °C 1027.2 hPa WNW 4.7 km/h 11.1 km/h 55% 0.0 mm CLR
11:15 15.8 °C 7.1 °C 1027.2 hPa West 4.7 km/h 7.4 km/h 56% 0.0 mm CLR
11:20 16.0 °C 6.9 °C 1026.9 hPa SW 5.8 km/h 7.4 km/h 55% 0.0 mm CLR
11:25 16.1 °C 6.8 °C 1026.9 hPa West 5.8 km/h 7.6 km/h 54% 0.0 mm CLR
11:30 16.3 °C 6.7 °C 1026.9 hPa West 5.0 km/h 5.6 km/h 53% 0.0 mm CLR
11:35 16.6 °C 6.9 °C 1026.8 hPa West 4.8 km/h 8.0 km/h 53% 0.0 mm CLR
11:40 17.1 °C 6.9 °C 1026.8 hPa NE 3.2 km/h 5.6 km/h 51% 0.0 mm CLR
11:45 17.6 °C 6.8 °C 1026.8 hPa NE 3.2 km/h 9.7 km/h 49% 0.0 mm CLR
11:50 17.8 °C 6.6 °C 1026.7 hPa NNW 3.2 km/h 5.6 km/h 48% 0.0 mm CLR
11:55 18.1 °C 6.6 °C 1026.7 hPa NE 3.2 km/h 7.4 km/h 47% 0.0 mm CLR
12:00 18.2 °C 6.7 °C 1026.7 hPa NNE 3.2 km/h 4.8 km/h 47% 0.0 mm CLR
12:05 18.5 °C 6.7 °C 1026.4 hPa NNE 3.2 km/h 3.7 km/h 46% 0.0 mm CLR
12:10 18.8 °C 6.6 °C 1026.4 hPa NE 3.2 km/h 4.7 km/h 45% 0.0 mm CLR
12:15 19.0 °C 6.8 °C 1026.4 hPa WNW 3.2 km/h 7.4 km/h 45% 0.0 mm CLR
12:20 19.0 °C 6.8 °C 1026.2 hPa WNW 3.9 km/h 5.6 km/h 45% 0.0 mm CLR
12:25 19.3 °C 6.7 °C 1026.2 hPa WNW 3.9 km/h 5.6 km/h 44% 0.0 mm CLR
12:30 19.4 °C 6.8 °C 1026.2 hPa WNW 2.9 km/h 7.4 km/h 44% 0.0 mm CLR
12:35 19.5 °C 6.9 °C 1025.9 hPa WNW 2.9 km/h 7.4 km/h 44% 0.0 mm CLR
12:40 19.7 °C 7.1 °C 1025.9 hPa NW 3.2 km/h 11.3 km/h 44% 0.0 mm CLR
12:45 19.7 °C 7.1 °C 1025.9 hPa WNW 3.9 km/h 7.4 km/h 44% 0.0 mm CLR
12:50 20.0 °C 7.1 °C 1025.6 hPa NE 5.8 km/h 5.6 km/h 43% 0.0 mm CLR
12:55 20.3 °C 6.9 °C 1025.6 hPa NNW 5.8 km/h 11.1 km/h 42% 0.0 mm CLR
13:00 20.3 °C 6.9 °C 1025.6 hPa North 3.2 km/h 8.0 km/h 42% 0.0 mm CLR
13:05 20.6 °C 7.2 °C 1025.3 hPa North 3.2 km/h 12.9 km/h 42% 0.0 mm CLR
13:10 20.8 °C 7.4 °C 1025.3 hPa NW 5.0 km/h 7.6 km/h 42% 0.0 mm CLR
13:15 21.1 °C 7.3 °C 1025.3 hPa ENE 5.0 km/h 11.1 km/h 41% 0.0 mm CLR
13:20 21.0 °C 7.2 °C 1024.9 hPa NNE 6.9 km/h 7.6 km/h 41% 0.0 mm CLR
13:25 21.1 °C 7.7 °C 1024.9 hPa East 6.9 km/h 7.4 km/h 42% 0.0 mm CLR
13:30 21.2 °C 7.4 °C 1024.9 hPa NNW 5.8 km/h 11.1 km/h 41% 0.0 mm CLR
13:35 21.2 °C 7.4 °C 1024.6 hPa NW 5.8 km/h 3.7 km/h 41% 0.0 mm CLR
13:40 21.5 °C 7.7 °C 1024.6 hPa North 5.8 km/h 7.4 km/h 41% 0.0 mm CLR
13:45 21.7 °C 7.9 °C 1024.6 hPa North 5.8 km/h 9.5 km/h 41% 0.0 mm CLR
13:50 21.8 °C 7.6 °C 1024.2 hPa NNE 8.0 km/h 14.5 km/h 40% 0.0 mm CLR
13:55 22.1 °C 7.9 °C 1024.2 hPa NE 6.9 km/h 13.0 km/h 40% 0.0 mm CLR
14:00 22.1 °C 7.9 °C 1024.2 hPa NNE 4.8 km/h 14.5 km/h 40% 0.0 mm CLR
14:05 22.3 °C 8.1 °C 1023.7 hPa NNE 5.8 km/h 14.8 km/h 40% 0.0 mm CLR
14:10 22.3 °C 8.1 °C 1023.7 hPa NE 6.9 km/h 7.4 km/h 40% 0.0 mm CLR
14:15 22.6 °C 8.3 °C 1023.7 hPa NNE 6.9 km/h 13.0 km/h 40% 0.0 mm CLR
14:20 22.6 °C 7.9 °C 1023.3 hPa NE 6.9 km/h 11.1 km/h 39% 0.0 mm CLR
14:25 22.8 °C 7.7 °C 1023.3 hPa NNE 6.9 km/h 3.7 km/h 38% 0.0 mm CLR
14:30 23.1 °C 7.6 °C 1023.3 hPa SE 5.0 km/h 11.9 km/h 37% 0.0 mm CLR
14:35 23.3 °C 7.4 °C 1022.9 hPa WNW 5.0 km/h 9.3 km/h 36% 0.0 mm CLR
14:40 23.6 °C 7.2 °C 1022.9 hPa SE 5.8 km/h 16.7 km/h 35% 0.0 mm CLR
14:45 23.7 °C 7.3 °C 1022.9 hPa SSW 5.8 km/h 14.8 km/h 35% 0.0 mm CLR
14:50 23.7 °C 7.3 °C 1022.6 hPa South 11.1 km/h 14.8 km/h 35% 0.0 mm CLR
14:55 23.7 °C 7.3 °C 1022.6 hPa SSW 11.1 km/h 22.2 km/h 35% 0.0 mm CLR
15:00 23.7 °C 7.3 °C 1022.6 hPa SSE 11.3 km/h 19.3 km/h 35% 0.0 mm CLR
15:05 23.7 °C 7.7 °C 1022.3 hPa SW 11.9 km/h 22.2 km/h 36% 0.0 mm CLR
15:10 23.6 °C 7.7 °C 1022.3 hPa SSE 11.9 km/h 25.9 km/h 36% 0.0 mm CLR
15:15 23.5 °C 7.9 °C 1022.3 hPa SSE 11.9 km/h 18.5 km/h 37% 0.0 mm CLR
15:20 23.7 °C 8.2 °C 1021.9 hPa SSE 12.2 km/h 16.7 km/h 37% 0.0 mm CLR
15:25 23.8 °C 7.8 °C 1021.9 hPa SSE 12.2 km/h 13.0 km/h 36% 0.0 mm CLR
15:30 23.9 °C 8.3 °C 1021.9 hPa SE 11.9 km/h 16.7 km/h 37% 0.0 mm CLR
15:35 23.9 °C 8.3 °C 1021.9 hPa SSW 11.9 km/h 16.7 km/h 37% 0.0 mm CLR
15:40 23.7 °C 8.2 °C 1021.9 hPa SE 13.7 km/h 20.4 km/h 37% 0.0 mm CLR
15:45 23.6 °C 8.4 °C 1021.9 hPa SE 13.7 km/h 16.7 km/h 38% 0.0 mm CLR
15:50 23.7 °C 8.6 °C 1021.5 hPa ESE 12.2 km/h 19.8 km/h 38% 0.0 mm CLR
15:55 23.7 °C 8.6 °C 1021.5 hPa SSE 12.2 km/h 14.8 km/h 38% 0.0 mm CLR
16:00 23.7 °C 8.6 °C 1021.5 hPa SE 12.9 km/h 20.9 km/h 38% 0.0 mm CLR
16:05 23.7 °C 8.6 °C 1021.4 hPa South 13.0 km/h 20.4 km/h 38% 0.0 mm CLR
16:10 23.7 °C 8.6 °C 1021.4 hPa SE 13.7 km/h 13.7 km/h 38% 0.0 mm CLR
16:15 23.8 °C 8.6 °C 1021.4 hPa SSE 13.7 km/h 14.8 km/h 38% 0.0 mm CLR
16:20 23.7 °C 8.2 °C 1021.2 hPa SE 11.1 km/h 11.1 km/h 37% 0.0 mm CLR
16:25 23.8 °C 8.6 °C 1021.2 hPa ESE 11.1 km/h 13.0 km/h 38% 0.0 mm CLR
16:30 24.0 °C 8.4 °C 1021.2 hPa South 10.0 km/h 16.7 km/h 37% 0.0 mm CLR
16:35 23.8 °C 8.6 °C 1020.9 hPa SSE 10.0 km/h 16.7 km/h 38% 0.0 mm CLR
16:40 23.9 °C 8.7 °C 1020.9 hPa SSE 11.9 km/h 18.5 km/h 38% 0.0 mm CLR
16:45 23.7 °C 8.6 °C 1020.9 hPa SE 11.9 km/h 16.7 km/h 38% 0.0 mm CLR
16:50 23.8 °C 8.6 °C 1020.7 hPa SSW 11.9 km/h 16.7 km/h 38% 0.0 mm CLR
16:55 23.9 °C 8.7 °C 1020.7 hPa South 11.9 km/h 14.8 km/h 38% 0.0 mm CLR
17:00 23.8 °C 8.6 °C 1020.7 hPa South 11.3 km/h 22.5 km/h 38% 0.0 mm CLR
17:05 23.8 °C 8.6 °C 1020.7 hPa SE 10.3 km/h 14.8 km/h 38% 0.0 mm CLR
17:10 23.7 °C 8.6 °C 1020.7 hPa SE 11.1 km/h 16.7 km/h 38% 0.0 mm CLR
17:15 23.3 °C 8.2 °C 1020.7 hPa ESE 11.1 km/h 24.1 km/h 38% 0.0 mm CLR
17:20 23.1 °C 8.4 °C 1020.5 hPa ESE 12.9 km/h 22.5 km/h 39% 0.0 mm CLR
17:25 23.2 °C 8.5 °C 1020.5 hPa SE 13.7 km/h 14.8 km/h 39% 0.0 mm CLR
17:30 23.4 °C 8.3 °C 1020.5 hPa SE 11.1 km/h 18.5 km/h 38% 0.0 mm CLR
17:35 23.3 °C 8.2 °C 1020.5 hPa SSE 11.1 km/h 18.5 km/h 38% 0.0 mm CLR
17:40 23.3 °C 8.2 °C 1020.5 hPa SE 12.2 km/h 16.7 km/h 38% 0.0 mm CLR
17:45 23.3 °C 8.6 °C 1020.5 hPa ESE 12.2 km/h 14.8 km/h 39% 0.0 mm CLR
17:50 23.4 °C 8.7 °C 1020.4 hPa ESE 11.1 km/h 9.3 km/h 39% 0.0 mm CLR
17:55 23.4 °C 8.3 °C 1020.4 hPa SE 11.1 km/h 18.5 km/h 38% 0.0 mm CLR
18:00 23.2 °C 8.5 °C 1020.4 hPa SE 9.7 km/h 19.3 km/h 39% 0.0 mm CLR
18:05 22.9 °C 8.2 °C 1020.3 hPa ESE 8.7 km/h 22.2 km/h 39% 0.0 mm CLR
18:10 22.6 °C 8.3 °C 1020.3 hPa SE 11.9 km/h 14.8 km/h 40% 0.0 mm CLR
18:15 22.4 °C 8.5 °C 1020.3 hPa ESE 11.9 km/h 13.0 km/h 41% 0.0 mm CLR
18:20 22.4 °C 8.5 °C 1020.3 hPa ESE 10.3 km/h 20.4 km/h 41% 0.0 mm CLR
18:25 22.1 °C 8.2 °C 1020.3 hPa ESE 10.3 km/h 16.7 km/h 41% 0.0 mm CLR
18:30 21.9 °C 8.4 °C 1020.3 hPa SE 11.1 km/h 16.7 km/h 42% 0.0 mm CLR
18:35 21.6 °C 8.5 °C 1020.5 hPa ESE 11.1 km/h 13.0 km/h 43% 0.0 mm CLR
18:40 21.5 °C 8.4 °C 1020.5 hPa East 10.0 km/h 18.5 km/h 43% 0.0 mm CLR
18:45 21.2 °C 8.4 °C 1020.5 hPa ESE 10.0 km/h 16.7 km/h 44% 0.0 mm CLR
18:50 21.0 °C 8.3 °C 1020.4 hPa ESE 11.9 km/h 16.7 km/h 44% 0.0 mm CLR
18:55 20.8 °C 8.4 °C 1020.4 hPa ESE 11.9 km/h 14.8 km/h 45% 0.0 mm CLR
19:00 20.7 °C 8.7 °C 1020.4 hPa ESE 11.3 km/h 20.9 km/h 46% 0.0 mm CLR
19:05 20.6 °C 8.6 °C 1020.6 hPa ESE 10.3 km/h 9.5 km/h 46% 0.0 mm CLR
19:10 20.3 °C 8.6 °C 1020.6 hPa SE 8.7 km/h 13.0 km/h 47% 0.0 mm CLR
19:15 20.2 °C 8.8 °C 1020.6 hPa SE 8.7 km/h 11.1 km/h 48% 0.0 mm CLR
19:20 20.1 °C 8.7 °C 1020.6 hPa ESE 6.9 km/h 9.3 km/h 48% 0.0 mm CLR
19:25 19.9 °C 8.9 °C 1020.6 hPa ESE 6.9 km/h 11.1 km/h 49% 0.0 mm CLR
19:30 19.8 °C 8.8 °C 1020.6 hPa SE 7.6 km/h 7.4 km/h 49% 0.0 mm CLR
19:35 19.7 °C 8.7 °C 1020.8 hPa ESE 7.6 km/h 7.4 km/h 49% 0.0 mm CLR
19:40 19.7 °C 8.7 °C 1020.8 hPa ESE 5.8 km/h 7.4 km/h 49% 0.0 mm CLR
19:45 19.6 °C 8.9 °C 1020.8 hPa ESE 5.8 km/h 5.6 km/h 50% 0.0 mm CLR
19:50 19.6 °C 9.2 °C 1020.7 hPa West 3.2 km/h 7.4 km/h 51% 0.0 mm CLR
19:55 19.5 °C 9.1 °C 1020.7 hPa West 3.2 km/h 3.7 km/h 51% 0.0 mm CLR
20:00 19.5 °C 9.4 °C 1020.7 hPa West 3.2 km/h 3.2 km/h 52% 0.0 mm CLR
20:05 19.4 °C 9.3 °C 1020.9 hPa WNW 2.9 km/h 7.4 km/h 52% 0.0 mm CLR
20:10 19.2 °C 9.4 °C 1020.9 hPa West 2.9 km/h 7.4 km/h 53% 0.0 mm CLR
20:15 19.1 °C 9.3 °C 1020.9 hPa WNW 2.9 km/h 7.4 km/h 53% 0.0 mm CLR
20:20 18.9 °C 9.1 °C 1020.9 hPa WNW 3.9 km/h 3.7 km/h 53% 0.0 mm CLR
20:25 18.7 °C 9.2 °C 1020.9 hPa WNW 3.9 km/h 9.3 km/h 54% 0.0 mm CLR
20:30 18.6 °C 9.4 °C 1020.9 hPa WNW 3.9 km/h 3.7 km/h 55% 0.0 mm CLR
20:35 18.5 °C 9.3 °C 1021.0 hPa WNW 3.9 km/h 3.9 km/h 55% 0.0 mm CLR
20:40 18.3 °C 9.4 °C 1021.0 hPa WNW 2.3 km/h 2.9 km/h 56% 0.0 mm CLR
20:45 18.2 °C 9.3 °C 1021.0 hPa NNE 2.3 km/h 7.4 km/h 56% 0.0 mm CLR
20:50 18.0 °C 9.3 °C 1021.2 hPa NNE 3.2 km/h   57% 0.0 mm CLR
20:55 17.8 °C 9.2 °C 1021.2 hPa NW 3.2 km/h 5.6 km/h 57% 0.0 mm CLR
21:00 17.7 °C 9.3 °C 1021.2 hPa NNW 3.2 km/h 8.0 km/h 58% 0.0 mm CLR
21:05 17.4 °C 9.3 °C 1021.2 hPa WNW 2.9 km/h 7.4 km/h 59% 0.0 mm CLR
21:10 17.2 °C 9.6 °C 1021.2 hPa West 4.7 km/h 9.3 km/h 61% 0.0 mm CLR
21:15 17.1 °C 9.5 °C 1021.2 hPa West 4.7 km/h 5.6 km/h 61% 0.0 mm CLR
21:20 16.9 °C 9.6 °C 1021.1 hPa West 4.7 km/h 7.4 km/h 62% 0.0 mm CLR
21:25 16.8 °C 9.7 °C 1021.1 hPa West 4.7 km/h 6.4 km/h 63% 0.0 mm CLR
21:30 16.8 °C 9.7 °C 1021.1 hPa West 4.7 km/h 7.4 km/h 63% 0.0 mm CLR
21:35 16.7 °C 9.8 °C 1021.3 hPa WSW 4.7 km/h 11.1 km/h 64% 0.0 mm CLR
21:40 16.7 °C 10.3 °C 1021.3 hPa WSW 6.4 km/h 13.7 km/h 66% 0.0 mm CLR
21:45 16.7 °C 10.3 °C 1021.3 hPa SW 6.4 km/h 9.3 km/h 66% 0.0 mm CLR
21:50 16.6 °C 10.4 °C 1021.2 hPa WSW 7.6 km/h 7.4 km/h 67% 0.0 mm CLR
21:55 16.6 °C 10.4 °C 1021.2 hPa WSW 7.6 km/h 11.1 km/h 67% 0.0 mm CLR
22:00 16.5 °C 10.6 °C 1021.2 hPa WSW 8.0 km/h 12.9 km/h 68% 0.0 mm CLR
22:05 16.4 °C 10.5 °C 1021.3 hPa West 6.4 km/h 9.3 km/h 68% 0.0 mm CLR
22:10 16.2 °C 10.5 °C 1021.3 hPa West 6.9 km/h 11.1 km/h 69% 0.0 mm CLR
22:15 16.0 °C 10.6 °C 1021.3 hPa West 6.9 km/h 9.3 km/h 70% 0.0 mm CLR
22:20 15.9 °C 10.4 °C 1021.3 hPa West 5.0 km/h 7.6 km/h 70% 0.0 mm CLR
22:25 15.9 °C 10.4 °C 1021.3 hPa West 5.0 km/h 7.4 km/h 70% 0.0 mm CLR
22:30 15.8 °C 10.6 °C 1021.3 hPa WNW 4.7 km/h 7.4 km/h 71% 0.0 mm CLR
22:35 15.7 °C 10.7 °C 1021.3 hPa West 4.7 km/h 9.3 km/h 72% 0.0 mm CLR
22:40 15.6 °C 10.6 °C 1021.3 hPa West 6.9 km/h 9.3 km/h 72% 0.0 mm CLR
22:45 15.5 °C 10.4 °C 1021.3 hPa WSW 6.9 km/h 11.1 km/h 72% 0.0 mm CLR
22:50 15.4 °C 10.4 °C 1021.3 hPa WSW 6.4 km/h 9.3 km/h 72% 0.0 mm CLR
22:55 15.4 °C 10.4 °C 1021.3 hPa SW 6.4 km/h 13.0 km/h 72% 0.0 mm CLR
23:00 15.3 °C 10.3 °C 1021.3 hPa SW 8.0 km/h 11.3 km/h 72% 0.0 mm CLR
23:05 15.3 °C 10.1 °C 1021.4 hPa SW 8.4 km/h 11.1 km/h 71% 0.0 mm CLR
23:10 15.3 °C 10.1 °C 1021.4 hPa SSW 7.6 km/h 13.0 km/h 71% 0.0 mm CLR
23:15 15.3 °C 10.3 °C 1021.4 hPa SSW 7.6 km/h 11.1 km/h 72% 0.0 mm CLR
23:20 15.2 °C 10.2 °C 1021.1 hPa SSW 8.4 km/h 14.8 km/h 72% 0.0 mm CLR
23:25 15.1 °C 10.3 °C 1021.1 hPa SSW 8.4 km/h 13.0 km/h 73% 0.0 mm CLR
23:30 15.1 °C 10.5 °C 1021.1 hPa SW 10.0 km/h 14.8 km/h 74% 0.0 mm CLR
23:35 15.1 °C 10.5 °C 1021.2 hPa SSW 10.0 km/h 7.4 km/h 74% 0.0 mm CLR
23:40 15.1 °C 10.7 °C 1021.2 hPa SSW 7.6 km/h 13.0 km/h 75% 0.0 mm CLR
23:45 15.1 °C 10.7 °C 1021.2 hPa SSW 7.6 km/h 14.8 km/h 75% 0.0 mm CLR
23:50 15.2 °C 10.8 °C 1021.0 hPa South 10.3 km/h 14.8 km/h 75% 0.0 mm CLR
23:55 15.1 °C 10.7 °C 1021.0 hPa SSW 10.3 km/h 16.7 km/h 75% 0.0 mm CLR
Murcia-Puente Tocinos, España
Compliments of Weather Underground - 3.5 mb

La estación de MeteoMurcia.com, publica sus datos en los siguientes proyectos:

Weather Underground PWS IMURCIAP2 Meteoclimatic www.awekas.at

W3Counter
Web Analytics